Hourly Data Report for February 05, 2005

All times are specified in Local Standard Time (LST). Add 1 hour to adjust for Daylight Saving Time where and when it is observed.

TORONTO LESTER B. PEARSON INT'L A
ONTARIO

43°40'38.000" N
79°37'50.000" W
173.40 m
6158733
71624
YYZ

Download Data

Hourly Data (February 2005)
Hourly Data Report for February 5, 2005
Temp Definition
°C
Dew Point Temp Definition
°C
Rel Hum Definition
%
Wind Dir Definition
10's deg

Wind Spd Definition
km/h
Visibility Definition
km
Stn Press Definition
kPa
Hmdx Definition


Wind Chill Definition


Weather Definition


TIME
00:00 -1.4 -4.6 79   0 14.5 100.75 Clear
01:00 -1.2 -4.5 78   0 14.5 100.75 Clear
02:00 -2.0 -5.3 78 17 6 14.5 100.78 -4 Clear
03:00 -2.0 -5.1 79 18 4 12.9 100.83 -3 Clear
04:00 -2.3 -5.3 80 19 7 9.7 100.86 -5 Haze
05:00 -4.6 -6.7 85   0 9.7 100.89 Haze
06:00 -3.0 -5.4 83 18 4 9.7 100.89 -5 Haze
07:00 -4.3 -5.9 89 24 6 8.0 100.93 -7 Fog
08:00 -3.3 -5.2 87 21 4 6.4 100.99 -5 Fog
09:00 -2.8 -4.6 87 24 4 6.4 101.03 -4 Fog
10:00 0.3 -1.8 86 19 6 6.4 101.04 Haze
11:00 2.4 -1.4 76 15 4 6.4 101.03 Haze
12:00 2.7 -2.3 70 14 11 8.0 101.02 Haze
13:00 2.6 -1.9 72 14 11 8.0 100.99 Haze
14:00 2.5 -1.4 75 15 9 8.0 100.97 Haze
15:00 1.3 -1.6 81 15 9 6.4 100.95 Haze
16:00 1.3 -1.1 84 15 9 6.4 100.92 Haze
17:00 0.0 -2.1 86 13 7 4.0 100.95 -2 Haze
18:00 -1.1 -3.0 87 18 6 0.8 100.99 -3 Freezing Fog
19:00 -1.3 -2.7 90 19 4 4.0 100.98 -3 Fog
20:00 -2.1 -2.7 96 20 4 2.4 101.03 -4 Fog
21:00 -2.3 -4.3 86 26 6 0.2 101.05 -5 Freezing Fog
22:00 -3.4 -4.7 91 27 6 0.2 101.05 -6 Freezing Fog
23:00 -4.3 -5.3 93 29 4 1.6 101.02 -6 Fog

Notes on Data Quality.

Legend

  • E = Estimated
  • M = Missing
  • NA = Not Available
  • ‡ = Partner data that is not subject to review by the National Climate Archives
Date modified: